This demonstration page uses our WeatherBlox Daily Observations layout. Learn more.

Left ArrowRight Arrow

30.00354, -91.81873

Hourly Observations for August 6, 2022

Temp ( °F °C ) Dew Point ( °F °C ) Humidity (%) Winds ( mph kmh ) Pressure ( in mb ) Visibility ( mi km ) Precip ( " mm )
12:53 am 00:53 Clear 77 25 74 23.3 90 90 E 6 9 30.04 1017 10 16 0.00 0.00
1:53 am 01:53 Clear 76 24.4 74 23.3 94 94 E 5 7 30.04 1017 10 16 0.00 0.00
2:53 am 02:53 Clear 76 24.4 74 23.3 94 94 E 3 6 30.03 1017 10 16 0.00 0.00
3:53 am 03:53 Clear 76 24.4 74 23.3 94 94 E 3 6 30.03 1017 10 16 0.00 0.00
4:53 am 04:53 Clear 76 24.4 74 23.3 94 94 E 5 7 30.04 1017 10 16 0.00 0.00
5:53 am 05:53 Clear 76 24.4 73 22.8 91 91 E 3 6 30.06 1018 10 16 0.00 0.00
6:53 am 06:53 Sunny 76 24.4 74 23.3 94 94 E 5 7 30.08 1019 10 16 0.00 0.00
7:53 am 07:53 Sunny 79 26.1 75 23.9 88 88 E 7 11 30.10 1019 10 16 0.00 0.00
8:53 am 08:53 Sunny 83 28.3 76 24.4 79 79 ESE 6 9 30.11 1020 10 16 0.00 0.00
9:53 am 09:53 Mostly Sunny 86 30 76 24.4 72 72 ESE 8 13 30.12 1020 10 16 0.00 0.00
10:53 am 10:53 Mostly Cloudy 89 31.7 75 23.9 63 63 SE 10 17 30.12 1020 10 16 0.00 0.00
11:53 am 11:53 Mostly Sunny 88 31.1 74 23.3 63 63 SE 9 15 30.12 1020 10 16 0.00 0.00
12:53 pm 12:53 Sunny 86 30 75 23.9 70 70 ESE 13 20 30.12 1020 10 16 0.00 0.00
1:53 pm 13:53 Sunny 85 29.4 72 22.2 65 65 SE 9 15 30.09 1019 10 16 0.00 0.00
2:53 pm 14:53 Sunny 86 30 73 22.8 65 65 ESE 6 9 30.09 1019 10 16 0.00 0.00
3:53 pm 15:53 Sunny 87 30.6 74 23.3 65 65 E 8 13 30.08 1019 10 16 0.00 0.00
4:53 pm 16:53 Partly Cloudy 86 30 75 23.9 70 70 ESE 10 17 30.08 1019 10 16 0.00 0.00
5:07 pm 17:07 Mostly Cloudy with Light Rain 79 26.1 73 22.8 82 82 S 7 11 30.08 1019 10 16 0.00 0.00
5:15 pm 17:15 Mostly Cloudy with Thunderstorms 78 25.6 73 22.8 85 85 WSW 8 13 30.08 1019 10 16 0.00 0.00
5:22 pm 17:22 Cloudy with Thunderstorms 79 26.1 73 22.8 82 82 WNW 3 6 30.09 1019 10 16 0.00 0.00
5:30 pm 17:30 Mostly Cloudy with Light Rain 80 26.7 74 23.3 82 82 W 3 6 30.09 1019 10 16 0.00 0.00
5:53 pm 17:53 Mostly Cloudy with Light Rain 81 27.2 74 23.3 79 79 SE 3 6 30.07 1018 10 16 0.00 0.00
6:53 pm 18:53 Sunny 83 28.3 74 23.3 74 74 SE 8 13 30.07 1018 10 16 0.00 0.00
7:53 pm 19:53 Sunny 80 26.7 74 23.3 82 82 SE 5 7 30.07 1018 10 16 0.00 0.00
8:53 pm 20:53 Clear 80 26.7 74 23.3 82 82 E 5 7 30.10 1019 10 16 0.00 0.00
9:53 pm 21:53 Clear 80 26.7 74 23.3 82 82 NE 3 6 30.10 1019 10 16 0.00 0.00
10:53 pm 22:53 Mostly Clear 78 25.6 74 23.3 87 87 E 3 6 30.11 1020 10 16 0.00 0.00
11:53 pm 23:53 Clear 77 25 74 23.3 90 90 Calm 30.11 1020 10 16 0.00 0.00

Powered by AerisWeather